{"data":{"norad_id":66693,"epoch":"2026-05-25T03:25:50.176704Z","epoch_age_seconds":52890,"freshness":"FRESH","line1":"1 66693U 25276AD  26145.14294186  .00009569  00000+0  42181-3 0  9992","line2":"2 66693  97.4178 219.3388 0005651 100.4801 259.7072 15.21994590 26941","mean_motion":15.2199459,"eccentricity":0.0005651,"inclination_deg":97.4178,"raan_deg":219.3388,"arg_perigee_deg":100.4801,"mean_anomaly_deg":259.7072,"bstar":0.00042181,"rev_number":2694,"period_min":94.612688472171,"perigee_km":495.93821274264,"apogee_km":503.71168533745,"semimajor_km":6877.96194904,"source":"CELESTRAK","updated_at":"2026-05-25T13:38:06.414059Z"}}